2025-013A (62729 NORAD) Tracking and Keplerian Element Data

This shows tracking and keplerian element data for the satellite.

Feedback or suggestion? Click here.




ElementValue
Catalog62729
Name2025-013A
Epoch Orbit5060
Epoch Day354.269
Epoch Year2025
RAAN163.0582
Inclination97.6307
Eccentricity0.0010229
Argument of Perigee204.3148
Mean Anonmoly155.7607
Mean Motion15.23957968
Decay Rate0.00014895
L11 62729U 25013A 25354.26900000 .00014895 00000+0 61725-3 0 9993
L22 62729 97.6307 163.0582 0010229 204.3148 155.7607 15.23957968 50608



Live tracking and technical data element details for 2025-013A (NORAD 62729). 2025-013A can be tracked NOW for your location showing map with azimuth and elevation plus other details from your city location.







IsCatalogInMostPopularTable: catalog: 62729, numindb: 264
Update: records affected: 1



GetName: 62729 2025-013A

Hit Count: updated at: Mon, 18 May 2026 09:52:04 GMT